Regional Weather Roundup
Issued by NWS Wakefield, VA

Home | Current Version | Previous Version | Text Only | Print | Product List | Glossary Off
Versions: 1 2 3 4 5 6 7 8 9 10 11 12 13 14 15 16 17 18 19 20 21 22 23 24 25 26 27 28 29 30 31 32 33 34 35 36 37 38 39 40 41 42 43 44 45 46 47 48 49 50

000
ASUS41 KAKQ 262110
RWRAKQ

REGIONAL WEATHER ROUNDUP
NATIONAL WEATHER SERVICE WAKEFIELD VA
500 PM EDT TUE AUG 26 2014

Note: "fair" indicates few or no clouds below 12,000 feet with no
significant weather and/or obstructions to visibility. * = Denotes
station may not report precipitation (e.g., rain,snow,etc.),
thunder or fog.

VAZ042-051-052>054-056-262200-
NORTHERN VIRGINIA

CITY           SKY/WX    TMP DP  RH WIND       PRES   REMARKS
WASH NATIONAL  PTSUNNY   88  60  38 SE6       30.10F
DULLES         PTSUNNY   82  60  47 CALM      30.11F
FORT BELVOIR   MOSUNNY   84  63  47 SE6       30.10F
QUANTICO       MOSUNNY   85  62  46 NE7       30.10F
FREDERICKSBRG* SUNNY     85  62  45 NE6       30.09F
STAFFORD*      MOSUNNY   83  62  48 CALM      30.14F
WARRENTON      SUNNY     86  69  58 N3        30.11F
CULPEPER*      MOSUNNY  N/A N/A N/A NE3       30.11F
MANASSAS*      MOSUNNY   84  63  48 SE3       30.10
LEESBURG*      PTSUNNY   86  63  45 SW3       30.12F
WINCHESTER     SUNNY     82  59  44 E8        30.13F
$$

VAZ048-049-060>072-079>083-262200-
CENTRAL AND SOUTH CENTRAL VIRGINIA...AND NORTH CENTRAL NORTH CAROLINA

CITY           SKY/WX    TMP DP  RH WIND       PRES   REMARKS
RICHMOND       MOSUNNY   85  53  33 E12       30.09F
CHESTERFIELD*  CLEAR    N/A N/A N/A E7        30.10F
HANOVER        SUNNY     85  57  38 VRB6      30.11F
TAPPAHANNOCK*  SUNNY     84  57  39 E8        30.11S
CHARLOTTSVILLE MOSUNNY   82  60  47 N9        30.12F
ORANGE*        MOSUNNY   82  59  44 NE5       30.13F
LOUISA*        SUNNY     82  61  47 CALM      30.10F
FARMVILLE*     SUNNY     82  59  44 NE9       30.08F
SOUTH HILL*    SUNNY     82  63  51 CALM      30.14F
ROANOKE RAPIDS PTCLDY    81  61  50 NE9       30.07F
RALEIGH        PTSUNNY   81  61  50 NE8       30.10S
$$

VAZ088>098-262200-
SOUTHEAST VIRGINIA

CITY           SKY/WX    TMP DP  RH WIND       PRES   REMARKS
NORFOLK        SUNNY     77  63  61 NE9       30.09F
VIRGINIA BEACH MOSUNNY   77  63  61 NE12      30.09F
NORFOLK NAVAL  MOSUNNY   78  64  61 E12       30.11F
WEST POINT*    SUNNY     84  55  37 NE7       30.11F
NEWPORT NEWS   SUNNY     83  62  49 E9        30.09F
LANGLEY AFB    SUNNY     79  65  63 E7        30.09F
FORT EUSTIS    SUNNY     83  53  35 VRB6      30.07F
WILLIAMSBURG*  SUNNY     88  63  42 NE3       30.09F
FRANKLIN*      SUNNY     82  57  42 E9        30.08F
WAKEFIELD      SUNNY     84  60  44 VRB3      30.08F
$$

VAZ020-022-025-037-045-262200-
WESTERN AND SOUTHWEST VIRGINIA

CITY           SKY/WX    TMP DP  RH WIND       PRES   REMARKS
STAUNTON*      SUNNY     81  58  46 CALM      30.16F
HOT SPRINGS VA MOSUNNY   69  49  50 SE6       30.27F
LYNCHBURG      MOSUNNY   78  59  51 N5        30.14F
DANVILLE       MOSUNNY   80  60  50 NE9       30.11F
MARTINSVILLE   MOSUNNY   80  61  52 NE6       30.16S
ROANOKE        PTSUNNY   80  60  50 VRB6      30.16F
BLACKSBURG     MOSUNNY   75  63  64 E6        30.20S
DUBLIN*        MOSUNNY   77  58  52 SE5       30.19S
MARION*        SUNNY    N/A N/A N/A E5        30.21F
HILLSVILLE*    MOSUNNY   74  60  61 N5        30.20S
RICHLANDS*     CLEAR     81  55  41 NE5       30.19S
WISE*          SUNNY     81  55  41 N5        30.19F
ABINGDON*      SUNNY     82  55  39 NE3       30.16S
$$

MDZ021>025-VAZ099-100-262200-
SOUTHERN MARYLAND AND THE DELMARVA PENINSULA

CITY           SKY/WX    TMP DP  RH WIND       PRES   REMARKS
PATUXENT RIVER MOSUNNY   83  64  52 NE10      30.09F
BAY BRIDGE APT   N/A     82  61  47 NW7       30.10S
LEONARDTOWN    SUNNY     82  61  47 NE3       30.11F
DOVER          SUNNY     81  65  58 E6        30.09F
GEORGETOWN     SUNNY     82  58  43 E10       30.11F
EASTON         MOSUNNY   86  61  42 E7        30.13F
CAMBRIDGE      SUNNY     84  55  37 E7        30.09F
SALISBURY      SUNNY     84  56  38 E8        30.10F
OCEAN CITY     SUNNY     76  65  68 E8        30.11F
WALLOPS ISLAND SUNNY     78  62  57 E12       30.11F
ACCOMACK*        N/A    N/A N/A N/A MISG        N/A
$$

NCZ012>017-030>032-262200-
EASTERN NORTH CAROLINA

CITY           SKY/WX    TMP DP  RH WIND       PRES   REMARKS
ELIZABETH CITY SUNNY     80  64  58 NE12      30.08S
AHOSKIE*       SUNNY     81  57  44 NE5       30.08F
EDENTON*       SUNNY     81  61  50 E7        30.07F
CURRITUCK*     SUNNY     79  62  55 NE9       30.09F
KILL DEVIL HLS SUNNY     78  67  68 NE9       30.07S
MANTEO         MOSUNNY   78  68  71 NE16      30.08S
CAPE HATTERAS  MOSUNNY   78  70  76 NE10G24   30.04F
GOLDSBORO      MOSUNNY   82  65  56 N12       30.04F
WASHINGTON     SUNNY     82  58  43 NE10      30.06F
GREENVILLE     SUNNY     82  61  47 NE6       30.08S
NEW BERN       MOSUNNY   84  61  45 NE13      30.05F
WILMINGTON     MOSUNNY   84  66  54 N16       30.03S
$$

VAZ048-262200-
ELSEWHERE

CITY           SKY/WX    TMP DP  RH WIND       PRES   REMARKS
HARRISBURG PA  MOSUNNY   85  63  47 CALM      30.09F
BALTIMORE      MOSUNNY   83  58  42 S3        30.10F
ANNAPOLIS        N/A     84  63  49 CALM      30.09F
ANDREWS AFB    SUNNY     82  64  53 E6        30.11S
WILMINGTON DE  SUNNY     86  62  44 SE5       30.10F
PHILADELPHIA   MOSUNNY   88  60  38 S5        30.09F
WILDWOOD NJ*   SUNNY     79  57  47 E9        30.12F
ATLANTIC CITY  SUNNY     78  62  57 SE8       30.11F
HENDERSON NC   SUNNY     79  59  50 NE7       30.10F
GREENSBORO     PTSUNNY   80  59  48 NE6G16    30.11F
ROCKY MOUNT    MOSUNNY   84  62  47 N12       30.07F
FAYETTEVILLE   MOSUNNY   85  62  46 N12G21    30.05F
CHARLOTTE      MOSUNNY   83  57  41 N10       30.09F
$$

VAZ100-262200-
MARINE

STATION/POSITION TIME  TEMP    WIND        PRES    WAVE   SWELL
                       AIR SEA DIR/SP/G            HT/PER HT/PER
                 (UTC) (F)     (DEG/KT/KT) (MB)    (FT/S) (FT/S)
44066 TX TWR #4  2100   72 73   60/  6/  8 1019.9F   3/ 8   3/ 8
CAPE MAY NJ      2100   76 80  100/  8/ 12 1019.1F
LEWES DE         2100   75 77  110/  7/  9 1019.4F
15NM E FENWICK I 2100   73 74              1019.5F   4/ 9
OCEAN-CITY-INLET 2100   74 77   60/  6/ 10 1019.3F
WACHAPREAGUE VA  2100   75 79   80/ 12/ 16 1019.3F
THOMAS POINT MD  2100   80 78  360/  6/  7 1020.0F
GOOSES REEF MD   2100   80      10/ 10/ 12 1019.5F
COVE POINT MD    2100   79     360/ 10/ 12 1018.9F
SOLOMONS ISLAND  2100      81                N/A
BISHOPS HEAD MD  2100   83 79   60/  8/ 12 1018.6F
PINEY POINT MD   2100          180/  8/  8   N/A
POTOMAC MD       2100   78     130/  2/  4 1018.5F
CAMBRIDGE MD     2100   82 77   70/  7/  8 1018.8S
LEWISETTA VA     2100   79 79  140/  1/  3 1018.7F
RAPPAHANNOCK LGT 2100          340/  4/  6 1019.5F
STINGRAY PT      2100   78      20/  4/  6   N/A
YORK RVR RNG VA  2100   78      80/  7/  8 1018.6F
YORKTOWN VA      2100   78 79  100/  8/  9 1018.8F
JAMESTOWN VA     2100   80     110/  4/ 10   N/A
DOMINION TERM VA 2100   78      90/  4/ 10 1019.1F
KIPTOPEKE VA     2100      81   80/  7/ 11   N/A
CHES BAY BRIDGE  2100   74 78   50/ 11/ 13 1018.6F
CAPE HENRY VA    2100   74      50/ 11/ 13 1018.0F
CHESAPEAKE LGHT  2000   73      30/ 15/ 16 1019.7F
WILLOUBY STN VA  2100   75      90/  9/ 10 1017.9F
S CRANEY ISL VA  2100           30/  9/ 12 1018.7F
CAPE HENRY BUOY  2100      77                N/A     4/ 6   2/11
1ST LANDING BUOY 2100   75      60/ 12/ 16 1018.9F
CAPE CHARLES BUO 2100      77                N/A     4/ 9   3/ 9
OFFSHORE WE BUOY 2100      76                N/A     5/11   5/11
64NM E OF VA BCH 2100   77 78   40/ 14/ 17 1018.0F   5/ 9   3/ 9
DUCK PIER NC     2100   75 76   40/ 15/ 16 1017.8F
44056 DUCK FRF   2100                        N/A     5/ 9   2/11
OREGON INLET NC  2100   76 77   30/ 14/ 19 1017.9F
HATTERAS NC      2100   77 78   20/ 16/ 21 1017.7F
DIAMOND SHLS NC  2100   77      10/ 21/ 25 1015.8F   8/11   5/11
CAPE LOOKOUT NC  2100   78      40/ 21/ 24 1016.7F
$$



USA.gov is the U.S. government's official web portal to all federal, state and local government web resources and services.